sat.trackr.live / text

‹ back to catalog

STARLINK-11272 [DTC]

NORAD 60723 · 2024-152D

PAYLOAD ACTIVE UNKNOWN

§ Identity

Operator
Country
US
Launch date
2024-08-28
Launch site
AFETR
Launch vehicle
Mass (kg)
RCS (m²)

Purposes: comms

External: N2YO · Heavens-Above · Gunter

§ Orbital elements

Epoch: 2026-05-25T03:43:37.291008Z

Period
91.74 min
Inclination
53.1582°
Eccentricity
0.0000934
Mean motion
15.69698546 rev/d
Perigee alt
359.1 km
Apogee alt
360.4 km
Semi-major
6,737.9 km
B*
1.4536e-5
RAAN
99.3985°
Arg perigee
73.3756°
Mean anomaly
286.7364°
Rev number
10,084

§ Raw data

STARLINK-11272 [DTC]1 60723U 24152D   26145.15529272  .00001172  00000+0  14536-4 0  99962 60723  53.1582  99.3985 0000934  73.3756 286.7364 15.69698546100842

JSON: /api/v1/satellites/60723 · /tle

For live sub-satellite position, see the globe view (requires WebGL).

§ Visibility from observer

Set your observer location to see the next 7 days of passes ≥ 10°. The values pass through the URL so the page stays shareable.

No JS? Fill the form by hand. The geolocation button needs JavaScript.